Regional Weather Roundup
Issued by NWS

Home | Current Version | Previous Version | Text Only | Print | Product List | Glossary Off
Versions: 1 2 3 4 5 6 7 8 9 10 11 12 13 14 15 16 17 18 19 20 21 22 23 24 25 26 27 28 29 30 31 32 33 34 35 36 37 38 39 40 41 42 43 44 45 46 47 48 49 50

000
ASUS43 KLSX 060457
RWRMO

WEATHER SUMMARY FOR MISSOURI
NATIONAL WEATHER SERVICE SPRINGFIELD MO
1200 AM CDT FRI MAY 06 2016

NOTE: "FAIR" INDICATES FEW OR NO CLOUDS BELOW 12,000 FEET WITH NO
       SIGNIFICANT WEATHER AND/OR OBSTRUCTIONS TO VISIBILITY.
       CURRENT SKY AND/OR WEATHER CONDITIONS ARE NOT AVAILABLE FOR
       CHILLICOTHE AND FARMINGTON.

MOZ001>031-035>038-043-044-053-054-060600-
...NORTHERN AND WESTERN MISSOURI...

CITY           SKY/WX    TMP DP  RH WIND       PRES   REMARKS
KANSAS CTY INT CLEAR     59  37  44 S5        30.05S
LEE`S SUMMIT   CLEAR     54  41  61 CALM      30.06R
ST JOSEPH      CLEAR     54  49  83 CALM      30.04F
CHILLICOTHE      N/A     49  43  80 CALM      30.05F

$$
MOZ066>068-077>081-088>096-101>105-060600-
...SOUTHWEST MISSOURI...

CITY           SKY/WX    TMP DP  RH WIND       PRES   REMARKS
SPRINGFIELD    CLEAR     50  38  63 CALM      30.06R
JOPLIN         CLEAR     52  45  77 CALM      30.07R

$$
MOZ032>034-039>042-045>050-055>058-069>072-060600-
...CENTRAL MISSOURI...

CITY           SKY/WX    TMP DP  RH WIND       PRES   REMARKS
COLUMBIA       NOT AVBL
JEFFERSON CITY CLEAR     50  42  74 CALM      30.05S
ROLLA          PTCLDY    48  38  68 CALM      30.04S
SEDALIA        CLEAR     59  32  36 CALM      30.06S
WARRENSBURG    CLEAR     52  43  71 CALM      30.05S

$$
MOZ051-052-059>065-060600-
...EAST CENTRAL MISSOURI...

CITY           SKY/WX    TMP DP  RH WIND       PRES   REMARKS
ST LOUIS INTL  CLEAR     54  44  69 CALM      30.03S

$$
MOZ072>076-082>087-097>100-106>115-060600-
...SOUTH CENTRAL AND SOUTHEAST MISSOURI...

CITY           SKY/WX    TMP DP  RH WIND       PRES   REMARKS
CAPE GIRARDEAU PTCLDY    46  44  93 W3        30.03S
POPLAR BLUFF   CLEAR     51  48  89 CALM      30.04S
WEST PLAINS    CLEAR     47  38  71 CALM      30.06S

$$



USA.gov is the U.S. government's official web portal to all federal, state and local government web resources and services.